TimeCST,TemperatureF,Dew PointF,Humidity,Sea Level PressureIn,VisibilityMPH,Wind Direction,Wind SpeedMPH,Gust SpeedMPH,PrecipitationIn,Events,Conditions,WindDirDegrees,DateUTC
12:07 AM,26.6,24.8,93,29.91,7.0,SE,8.1,-,N/A,,Overcast,130,2013-02-10 06:07:00
12:27 AM,26.6,24.8,93,29.90,7.0,ESE,9.2,-,N/A,,Overcast,120,2013-02-10 06:27:00
12:47 AM,26.6,24.8,93,29.90,7.0,ESE,9.2,-,N/A,,Overcast,110,2013-02-10 06:47:00
1:07 AM,28.4,24.8,86,29.89,7.0,ESE,9.2,-,N/A,,Overcast,110,2013-02-10 07:07:00
1:27 AM,26.6,24.8,93,29.89,5.0,East,9.2,-,N/A,,Overcast,100,2013-02-10 07:27:00
1:47 AM,26.6,24.8,93,29.88,4.0,East,10.4,-,N/A,,Overcast,100,2013-02-10 07:47:00
2:07 AM,26.6,24.8,93,29.86,4.0,East,10.4,-,N/A,,Overcast,100,2013-02-10 08:07:00
2:27 AM,26.6,24.8,93,29.85,4.0,East,11.5,-,N/A,,Overcast,100,2013-02-10 08:27:00
2:47 AM,26.6,24.8,93,29.84,5.0,East,10.4,-,N/A,,Overcast,100,2013-02-10 08:47:00
3:07 AM,26.6,24.8,93,29.82,5.0,East,11.5,-,N/A,,Overcast,100,2013-02-10 09:07:00
3:27 AM,26.6,24.8,93,29.79,1.2,East,13.8,-,N/A,Snow,Light Snow,90,2013-02-10 09:27:00
3:47 AM,26.6,26.6,100,29.79,2.0,ESE,11.5,-,N/A,Snow,Light Snow,110,2013-02-10 09:47:00
4:07 AM,26.6,26.6,100,29.78,3.0,ESE,12.7,-,N/A,,Mostly Cloudy,110,2013-02-10 10:07:00
4:27 AM,26.6,26.6,100,29.76,4.0,ESE,16.1,19.6,N/A,,Overcast,110,2013-02-10 10:27:00
4:47 AM,26.6,26.6,100,29.73,3.0,East,19.6,-,N/A,,Overcast,100,2013-02-10 10:47:00
5:07 AM,26.6,26.6,100,29.71,3.0,East,18.4,-,N/A,,Mostly Cloudy,100,2013-02-10 11:07:00
5:27 AM,26.6,24.8,93,29.70,3.0,East,16.1,-,N/A,,Overcast,100,2013-02-10 11:27:00
5:47 AM,26.6,24.8,93,29.68,3.0,East,17.3,-,N/A,,Overcast,90,2013-02-10 11:47:00
6:07 AM,26.6,26.6,100,29.68,3.0,East,17.3,23.0,N/A,,Overcast,100,2013-02-10 12:07:00
6:27 AM,28.4,26.6,93,29.68,4.0,East,13.8,18.4,N/A,,Overcast,100,2013-02-10 12:27:00
6:47 AM,28.4,26.6,93,29.67,4.0,East,11.5,-,N/A,,Overcast,90,2013-02-10 12:47:00
7:07 AM,28.4,26.6,93,29.63,3.0,East,13.8,-,N/A,,Overcast,80,2013-02-10 13:07:00
7:27 AM,26.6,26.6,100,29.61,3.0,ENE,12.7,-,N/A,,Overcast,70,2013-02-10 13:27:00
7:47 AM,28.4,26.6,93,29.65,4.0,ESE,12.7,17.3,N/A,,Overcast,110,2013-02-10 13:47:00
8:07 AM,28.4,26.6,93,29.61,3.0,East,17.3,-,N/A,,Overcast,80,2013-02-10 14:07:00
8:27 AM,28.4,26.6,93,29.57,2.5,ENE,16.1,-,N/A,,Overcast,70,2013-02-10 14:27:00
8:47 AM,28.4,26.6,93,29.57,2.5,ENE,13.8,19.6,0.01,,Overcast,70,2013-02-10 14:47:00
9:07 AM,28.4,28.4,100,29.57,2.0,East,12.7,-,0.01,,Overcast,90,2013-02-10 15:07:00
9:27 AM,28.4,28.4,100,29.55,1.2,East,12.7,-,0.04,Snow,Light Snow,80,2013-02-10 15:27:00
9:47 AM,28.4,28.4,100,29.52,2.5,East,12.7,-,0.05,,Overcast,90,2013-02-10 15:47:00
10:07 AM,30.2,28.4,93,29.52,2.5,East,10.4,-,N/A,Snow,Light Snow,90,2013-02-10 16:07:00
10:27 AM,30.2,28.4,93,29.46,1.8,East,13.8,-,0.04,Snow,Light Snow,80,2013-02-10 16:27:00
10:47 AM,30.2,28.4,93,29.47,1.5,East,9.2,-,0.06,,Overcast,100,2013-02-10 16:47:00
11:07 AM,30.2,30.2,100,29.46,1.0,East,8.1,-,0.02,Snow,Light Snow,90,2013-02-10 17:07:00
11:27 AM,30.2,30.2,100,29.44,0.5,East,8.1,-,0.05,Snow,Snow,100,2013-02-10 17:27:00
11:47 AM,30.2,30.2,100,29.44,0.2,East,8.1,-,0.07,Snow,Snow,100,2013-02-10 17:47:00
12:07 PM,30.2,30.2,100,29.41,0.5,East,8.1,-,0.02,Snow,Snow,90,2013-02-10 18:07:00
12:27 PM,30.2,30.2,100,29.39,0.5,East,10.4,-,0.03,Snow,Snow,100,2013-02-10 18:27:00
12:47 PM,30.2,30.2,100,29.38,0.8,East,9.2,-,0.04,Snow,Light Snow,80,2013-02-10 18:47:00
1:07 PM,30.2,30.2,100,29.37,1.0,East,11.5,-,N/A,Snow,Light Snow,90,2013-02-10 19:07:00
1:27 PM,30.2,30.2,100,29.36,2.0,East,10.4,-,0.01,Snow,Light Snow,90,2013-02-10 19:27:00
1:47 PM,30.2,30.2,100,29.35,5.0,East,9.2,-,0.01,,Overcast,100,2013-02-10 19:47:00
2:07 PM,32.0,30.2,93,29.32,5.0,East,10.4,-,N/A,,Overcast,100,2013-02-10 20:07:00
2:27 PM,32.0,30.2,93,29.32,5.0,East,6.9,-,N/A,,Overcast,90,2013-02-10 20:27:00
2:48 PM,32.0,30.2,93,29.30,7.0,East,9.2,-,N/A,,Overcast,100,2013-02-10 20:48:00
3:07 PM,32.0,32.0,100,29.30,5.0,East,9.2,-,N/A,,Overcast,90,2013-02-10 21:07:00
3:27 PM,32.0,32.0,100,29.30,5.0,East,6.9,-,N/A,,Overcast,90,2013-02-10 21:27:00
3:47 PM,32.0,32.0,100,29.29,4.0,East,6.9,-,N/A,,Overcast,90,2013-02-10 21:47:00
4:07 PM,32.0,32.0,100,29.28,2.5,East,8.1,-,N/A,,Overcast,90,2013-02-10 22:07:00
4:27 PM,32.0,32.0,100,29.28,2.5,East,6.9,-,N/A,,Overcast,80,2013-02-10 22:27:00
4:47 PM,32.0,32.0,100,29.27,2.5,East,6.9,-,N/A,,Overcast,80,2013-02-10 22:47:00
5:07 PM,32.0,32.0,100,29.27,4.0,East,8.1,-,N/A,,Overcast,80,2013-02-10 23:07:00
5:27 PM,32.0,32.0,100,29.27,3.0,ENE,4.6,-,N/A,,Overcast,70,2013-02-10 23:27:00
5:47 PM,32.0,32.0,100,29.26,2.5,ENE,6.9,-,N/A,,Drizzle,70,2013-02-10 23:47:00
6:07 PM,32.0,32.0,100,29.26,1.0,ENE,5.8,-,N/A,,Drizzle,60,2013-02-11 00:07:00
6:27 PM,32.0,30.2,93,29.26,0.5,East,6.9,-,N/A,,Overcast,90,2013-02-11 00:27:00
6:47 PM,30.2,30.2,100,29.26,0.2,East,5.8,-,0.01,,Overcast,80,2013-02-11 00:47:00
7:07 PM,30.2,30.2,100,29.25,0.2,ENE,3.5,-,N/A,,Overcast,70,2013-02-11 01:07:00
7:27 PM,32.0,32.0,100,29.25,0.5,ENE,3.5,-,0.01,,Overcast,70,2013-02-11 01:27:00
7:47 PM,32.0,32.0,100,29.25,1.5,ENE,3.5,-,0.01,,Overcast,70,2013-02-11 01:47:00
8:07 PM,32.0,32.0,100,29.25,2.0,Calm,Calm,-,N/A,,Overcast,0,2013-02-11 02:07:00
8:27 PM,32.0,32.0,100,29.24,1.8,North,3.5,-,0.01,,Overcast,10,2013-02-11 02:27:00
8:47 PM,30.2,30.2,100,29.24,1.5,North,4.6,-,0.02,,Overcast,360,2013-02-11 02:47:00
9:07 PM,30.2,30.2,100,29.25,1.0,North,3.5,-,0.01,,Overcast,360,2013-02-11 03:07:00
9:27 PM,30.2,30.2,100,29.25,0.8,NNW,4.6,-,0.02,Snow,Light Snow,340,2013-02-11 03:27:00
9:47 PM,30.2,30.2,100,29.25,1.0,NW,5.8,-,0.03,Snow,Light Snow,320,2013-02-11 03:47:00
10:07 PM,30.2,30.2,100,29.25,1.2,NW,5.8,-,0.01,Snow,Snow,320,2013-02-11 04:07:00
10:27 PM,30.2,30.2,100,29.26,1.5,NW,8.1,-,0.01,Snow,Light Snow,320,2013-02-11 04:27:00
10:47 PM,30.2,30.2,100,29.27,1.2,NW,8.1,-,0.01,Snow,Light Snow,320,2013-02-11 04:47:00
11:07 PM,30.2,30.2,100,29.28,1.2,NW,11.5,-,N/A,Snow,Light Snow,310,2013-02-11 05:07:00
11:27 PM,30.2,30.2,100,29.29,0.8,WNW,9.2,-,N/A,Snow,Light Snow,300,2013-02-11 05:27:00
11:47 PM,30.2,30.2,100,29.30,1.2,NW,16.1,-,N/A,Snow,Light Snow,310,2013-02-11 05:47:00